Torna al catalogo

STARLINK-37135

AttivoComunicazioniSSO
NORAD 68602·PAYLOAD·🇺🇸 United States

Lanciato Apr 5, 2026 da Vandenberg Space Force Base

Loading…

Prossimi Passaggi (prossime 24 ore)

TLE

AggiornatoSource: CelesTrak SupGP

Epoca: Sep 15, 2026, 03:53 UTC

1 68602C 26073A   26258.16229167 -.00107370  00000+0 -33334-2 0  2582
2 68602  97.2852  96.2353 0001846  91.8167 189.7001 15.33488461    16

Traccia STARLINK-37135 in tempo reale con AllMySat

Download on the App Store